Meteo Giornale » Osservazioni meteo Stati Uniti (USA) » Los Angeles

ore: 06:53 - Osservazioni Meteo Los Angeles
Lat. 33° 56' N Lon. 118° 23' W Alt. 38 metri s.l.m.

molto_nuvoloso America/Los_Angeles

18 °C

Molto Nuvoloso

Temp. 24 Ore

18 °C

21 °C

Ovest/Nord-Ovest

13 Km/h

Dew point 12 °C

Umidità 67 %

Visibilità  10 Km

Il sole sorge alle ore 07:06

Il sole tramonta alle ore 18:08

Data e Ora Cielo e Fenomeni T °C DP °C Um. % Pres. hPa Vis. km Vento km/h
Oggi h: 06:53 molto_nuvoloso Molto Nuvoloso 18 12 67 1013 10 O/NO 13
Oggi h: 05:53 molto_nuvoloso Molto Nuvoloso 18 12 67 1013 10 O 20.3
Oggi h: 04:53 coperto Coperto 18 13 72 1013 10 O/NO 13
Oggi h: 03:53 coperto Coperto 18 12 67 1013 10 O/SO 11.1
Oggi h: 02:53 coperto Coperto 18 12 67 1013 10 N 0
Oggi h: 01:53 coperto Coperto 18 12 67 1014 10 N 0
Oggi h: 00:53 coperto Coperto 18 12 67 1013 10 O/NO 11.1
Ieri h: 23:53 coperto Coperto 18 13 72 1014 10 O 13
Ieri h: 22:53 coperto Coperto 18 13 72 1014 10 O 14.8
Ieri h: 21:53 coperto Coperto 18 13 72 1014 10 O 14.8
Ieri h: 20:53 molto_nuvoloso Molto Nuvoloso 18 14 77 1013 10 O 20.3
Ieri h: 19:53 molto_nuvoloso Molto Nuvoloso 18 14 77 1013 10 O 18.5
Ieri h: 18:53 molto_nuvoloso Molto Nuvoloso 18 14 77 1013 10 O 18.5
Ieri h: 17:53 molto_nuvoloso Molto Nuvoloso 18 14 77 1013 10 O 20.3
Ieri h: 16:53 nuvoloso Nuvoloso 19 12 63 1013 10 O/SO 20.3
Ieri h: 15:53 molto_nuvoloso Molto Nuvoloso 20 12 59 1013 10 O 22.2
Ieri h: 14:53 molto_nuvoloso Molto Nuvoloso 20 12 59 1014 10 O 24
Ieri h: 13:53 coperto Coperto 21 13 60 1014 10 O 20.3
Ieri h: 12:53 coperto Coperto 20 13 64 1015 10 O/SO 16.7
Ieri h: 11:53 coperto Coperto 19 13 68 1016 10 O/SO 14.8
Ieri h: 10:53 coperto Coperto 19 14 72 1016 10 SO 14.8
Ieri h: 09:53 coperto Coperto 19 14 72 1016 10 O 11.1
Ieri h: 08:53 coperto Coperto 18 14 77 1016 10 O 9.3
Ieri h: 06:53 coperto Coperto 18 14 77 1016 10 N 0